Fort Smith, AR

9:29 PM CDT on June 24, 2017 (GMT -0500)
Fort Smith Regional

Weather History for KFSM - April, 2013

Change the Weather History Date:

Thursday, April 4, 2013

  Actual Average Record
Temperature  
Mean Temperature 51 °F 58 °F  
Max Temperature 59 °F 71 °F 90 °F (1988)
Min Temperature 43 °F 46 °F 24 °F (1987)
Degree Days  
Heating Degree Days 14 8  
Month to date heating degree days 54 32  
Since 1 July heating degree days 2846 3091  
Cooling Degree Days 0 1  
Month to date cooling degree days 0 4  
Year to date cooling degree days 3 16  
Moisture  
Dew Point 39 °F    
Average Humidity 66    
Maximum Humidity 89    
Minimum Humidity 43    
Precipitation  
Precipitation 0.25 in 0.12 in 1.87 in (1934)
Month to date precipitation 1.26 0.50  
Year to date precipitation 13.11 9.92  
Sea Level Pressure  
Sea Level Pressure 30.13 in    
Wind  
Wind Speed 4 mph (NNW)    
Max Wind Speed 12 mph    
Max Gust Speed 16 mph    
Visibility 10 miles    
Events Rain    
T = Trace of Precipitation, MM = Missing Value Source: NWS Daily Summary

Daily Weather History Graph

Daily Weather History Graph

Search for Another Location

Airport or City:

Trip Planner

Search our weather history database for the weather conditions in past years. The results will help you decide how hot, cold, wet, or windy it might be!

Date:

Astronomy

Apr. 04, 2013 Rise Set
Actual Time 6:59 AM CDT 7:41 PM CDT
Civil Twilight 6:33 AM CDT 8:07 PM CDT
Nautical Twilight 6:03 AM CDT 8:37 PM CDT
Astronomical Twilight 5:32 AM CDT 9:08 PM CDT
Moon 3:14 AM CDT (4/4) 2:12 PM CDT (4/4)
Length of Visible Light 13h 33m
Length of Day
12h 42m
Waning Crescent, 33% of the Moon is Illuminated
Apr 4
Waning Crescent
Apr 10
New
Apr 18
First Quarter
Apr 25
Full
May 2
Last Quarter

Hourly Weather History & Observations

Time (CDT) Temp. Windchill Dew Point Humidity Pressure Visibility Wind Dir Wind Speed Gust Speed Precip Events Conditions
12:53 AM 46.9 °F - 36.0 °F 66% 30.17 in 10.0 mi Calm Calm - N/A   Overcast
1:53 AM 46.9 °F - 37.9 °F 71% 30.15 in 10.0 mi NNW 4.6 mph - N/A   Overcast
2:53 AM 46.0 °F 43.9 °F 37.9 °F 73% 30.13 in 10.0 mi North 4.6 mph - N/A   Overcast
3:53 AM 45.0 °F - 39.9 °F 82% 30.13 in 10.0 mi Calm Calm - 0.02 in Rain Light Rain
4:53 AM 45.0 °F 40.6 °F 39.9 °F 82% 30.13 in 10.0 mi WNW 8.1 mph - 0.02 in Rain Light Rain
5:53 AM 43.0 °F 37.7 °F 39.9 °F 89% 30.14 in 5.0 mi NW 9.2 mph - 0.07 in Rain Rain
6:53 AM 43.0 °F 38.8 °F 39.0 °F 86% 30.14 in 9.0 mi NNW 6.9 mph - 0.11 in Rain Light Rain
7:53 AM 44.1 °F 41.5 °F 39.0 °F 82% 30.15 in 8.0 mi North 4.6 mph - 0.02 in Rain Light Rain
8:53 AM 44.1 °F 42.5 °F 39.0 °F 82% 30.16 in 9.0 mi North 3.5 mph - 0.01 in Rain Light Rain
9:53 AM 45.0 °F 43.5 °F 39.0 °F 80% 30.15 in 10.0 mi North 3.5 mph - 0.00 in   Overcast
10:53 AM 46.0 °F - 39.0 °F 76% 30.15 in 10.0 mi Calm Calm - 0.00 in Rain Light Rain
11:53 AM 48.0 °F - 39.0 °F 71% 30.15 in 10.0 mi Calm Calm - 0.00 in   Scattered Clouds
12:53 PM 48.9 °F - 37.9 °F 66% 30.15 in 10.0 mi North 8.1 mph - N/A   Overcast
1:53 PM 50.0 °F - 35.1 °F 57% 30.13 in 10.0 mi Calm Calm - N/A   Overcast
2:53 PM 54.0 °F - 39.0 °F 57% 30.11 in 10.0 mi NNW 5.8 mph - N/A   Overcast
3:53 PM 54.0 °F - 39.9 °F 59% 30.09 in 10.0 mi WSW 6.9 mph - N/A   Overcast
4:53 PM 57.0 °F - 36.0 °F 45% 30.08 in 10.0 mi NW 6.9 mph - N/A   Overcast
5:53 PM 57.9 °F - 35.1 °F 42% 30.07 in 10.0 mi North 6.9 mph - N/A   Overcast
6:53 PM 57.9 °F - 36.0 °F 44% 30.07 in 10.0 mi Calm Calm - N/A   Mostly Cloudy
7:53 PM 55.0 °F - 42.1 °F 62% 30.09 in 10.0 mi Calm Calm - N/A   Overcast
8:53 PM 54.0 °F - 39.9 °F 59% 30.10 in 10.0 mi SE 3.5 mph - N/A   Overcast
9:53 PM 50.0 °F - 44.1 °F 80% 30.13 in 10.0 mi NNE 5.8 mph - N/A   Mostly Cloudy
10:53 PM 51.1 °F - 44.1 °F 77% 30.14 in 10.0 mi Calm Calm - N/A   Overcast
11:53 PM 50.0 °F - 44.1 °F 80% 30.14 in 10.0 mi Calm Calm - N/A   Mostly Cloudy